STARLINK-32256 (60362 NORAD) Tracking and Keplerian Element Data

This shows tracking and keplerian element data for the satellite.

Feedback or suggestion? Click here.




ElementValue
Catalog60362
NameSTARLINK-32256
Epoch Orbit1202
Epoch Day286.8405555
Epoch Year2024
RAAN177.0193
Inclination53.1588
Eccentricity0.0001309
Argument of Perigee57.1743
Mean Anonmoly302.9387
Mean Motion15.396523
Decay Rate0.00010328
L11 60362U 24138H 24286.84055550 .00010328 00000+0 26756-3 0 9991
L22 60362 53.1588 177.0193 0001309 57.1743 302.9387 15.39652300 12028



Live tracking and technical data element details for STARLINK-32256 (NORAD 60362). STARLINK-32256 can be tracked NOW for your location showing map with azimuth and elevation plus other details from your city location.







IsCatalogInMostPopularTable: catalog: 60362, numindb: 8
Update: records affected: 1



GetName: 60362 STARLINK-32256

Hit Count: updated at: Wed, 04 Dec 2024 19:09:20 GMT